Fort Campbell, KY

12:09 PM CST on January 21, 2017 (GMT -0600)
Fort Campbell

Weather History for KHOP - January, 2014

Change the Weather History Date:

Thursday, January 23, 2014

  Actual Average Record
Temperature  
Mean Temperature 14 °F -  
Max Temperature 20 °F 44 °F 68 °F (2002)
Min Temperature 7 °F 25 °F 0 °F (2003)
Degree Days  
Heating Degree Days 52    
Moisture  
Dew Point 3 °F    
Average Humidity 61    
Maximum Humidity 84    
Minimum Humidity 34    
Precipitation  
Precipitation 0.00 in - - ()
Sea Level Pressure  
Sea Level Pressure 30.55 in    
Wind  
Wind Speed 8 mph (NNW)    
Max Wind Speed 15 mph    
Max Gust Speed 25 mph    
Visibility 10 miles    
Events      
Averages and records for this station are not official NWS values.
T = Trace of Precipitation, MM = Missing Value Source: NWS Daily Summary

Daily Weather History Graph

Daily Weather History Graph

Search for Another Location

Airport or City:

Trip Planner

Search our weather history database for the weather conditions in past years. The results will help you decide how hot, cold, wet, or windy it might be!

Date:

Astronomy

Jan. 23, 2014 Rise Set
Actual Time 6:57 AM CST 5:06 PM CST
Civil Twilight 6:30 AM CST 5:33 PM CST
Nautical Twilight 5:58 AM CST 6:05 PM CST
Astronomical Twilight 5:28 AM CST 6:35 PM CST
Moon No Moon Rise 10:45 AM CST (1/23)
Length of Visible Light 11h 03m
Length of Day
10h 08m
Waning Gibbous, 55% of the Moon is Illuminated
Jan 23
Waning Gibbous
Jan 23
Last Quarter
Jan 30
New
Feb 6
First Quarter
Feb 14
Full

Hourly Weather History & Observations

Time (CST) Temp. Windchill Dew Point Humidity Pressure Visibility Wind Dir Wind Speed Gust Speed Precip Events Conditions
12:58 AM 20.8 °F - 13.6 °F 74% 30.24 in 10.0 mi West 2.3 mph - N/A   Mostly Cloudy
1:58 AM 15.4 °F 6.8 °F 11.3 °F 84% 30.27 in 10.0 mi WNW 5.8 mph - N/A   Clear
2:58 AM 20.3 °F 9.0 °F 14.5 °F 78% 30.31 in 10.0 mi NNW 10.4 mph - N/A   Clear
3:58 AM 19.2 °F 10.2 °F 13.8 °F 80% 30.35 in 10.0 mi NNW 6.9 mph - N/A   Mostly Cloudy
4:07 AM 19.4 °F 8.6 °F 12.2 °F 74% 30.33 in 10.0 mi NNW 9.2 mph 16.1 mph N/A   Mostly Cloudy
4:12 AM 19.4 °F 7.9 °F 12.2 °F 74% 30.33 in 10.0 mi NNW 10.4 mph - N/A   Mostly Cloudy
4:58 AM 18.7 °F 6.3 °F 9.9 °F 69% 30.39 in 10.0 mi North 11.5 mph - N/A   Partly Cloudy
5:58 AM 15.1 °F 1.8 °F 5.2 °F 65% 30.44 in 10.0 mi NNW 11.5 mph 20.7 mph N/A   Clear
6:11 AM 14.0 °F -1.4 °F 6.8 °F 73% 30.42 in 10.0 mi North 15.0 mph 20.7 mph N/A   Light Freezing Rain
6:14 AM 14.0 °F -0.8 °F 6.8 °F 73% 30.43 in 10.0 mi North 13.8 mph - N/A   Light Freezing Rain
6:22 AM 14.0 °F 2.0 °F 6.8 °F 73% 30.44 in 10.0 mi NNW 9.2 mph - N/A   Mostly Cloudy
6:24 AM 14.0 °F 1.2 °F 6.8 °F 73% 30.44 in 10.0 mi NNW 10.4 mph - N/A   Scattered Clouds
6:58 AM 12.2 °F -2.5 °F 2.7 °F 66% 30.50 in 10.0 mi NNW 12.7 mph 25.3 mph 0.00 in   Scattered Clouds
7:58 AM 10.4 °F -4.1 °F 0.1 °F 63% 30.55 in 10.0 mi North 11.5 mph 17.3 mph N/A   Scattered Clouds
8:58 AM 10.2 °F -4.3 °F -0.2 °F 63% 30.60 in 10.0 mi NNW 11.5 mph 21.9 mph N/A   Clear
9:58 AM 12.4 °F 3.1 °F -0.8 °F 56% 30.64 in 10.0 mi North 5.8 mph - N/A   Partly Cloudy
10:58 AM 14.5 °F 1.9 °F -3.8 °F 44% 30.66 in 10.0 mi North 10.4 mph - N/A   Partly Cloudy
11:58 AM 16.2 °F 3.9 °F -4.0 °F 41% 30.63 in 10.0 mi NNW 10.4 mph - N/A   Clear
12:58 PM 17.4 °F 5.4 °F -5.8 °F 36% 30.63 in 10.0 mi North 10.4 mph 18.4 mph N/A   Clear
1:58 PM 18.0 °F 11.1 °F -6.2 °F 34% 30.63 in 10.0 mi NW 4.6 mph - N/A   Clear
2:58 PM 18.5 °F 8.4 °F -5.1 °F 35% 30.63 in 10.0 mi NNW 8.1 mph - N/A   Clear
3:58 PM 16.7 °F 6.2 °F -5.1 °F 38% 30.66 in 10.0 mi NNW 8.1 mph - N/A   Partly Cloudy
4:58 PM 15.1 °F 2.5 °F -3.1 °F 45% 30.67 in 10.0 mi North 10.4 mph - N/A   Clear
5:58 PM 13.1 °F -1.4 °F -1.7 °F 52% 30.70 in 10.0 mi North 12.7 mph - N/A   Clear
6:58 PM 11.1 °F -0.6 °F -1.7 °F 57% 30.73 in 10.0 mi North 8.1 mph - N/A   Clear
7:58 PM 10.0 °F -0.9 °F -1.5 °F 60% 30.74 in 10.0 mi NNW 6.9 mph - N/A   Clear
8:58 PM 9.0 °F -2.2 °F -0.9 °F 64% 30.75 in 10.0 mi Variable 6.9 mph - N/A   Clear
9:58 PM 8.6 °F -1.3 °F -0.9 °F 65% 30.76 in 10.0 mi NW 5.8 mph - N/A   Clear
10:58 PM 7.7 °F -2.4 °F -1.1 °F 67% 30.76 in 10.0 mi WNW 5.8 mph - N/A   Clear
11:58 PM 7.2 °F -3.0 °F -1.3 °F 68% 30.76 in 10.0 mi WNW 5.8 mph - N/A   Clear